カタログに戻る

IRIDIUM 33 DEB

運用中PO
NORAD 35809·DEBRIS·🇺🇸 United States

打ち上げ Sep 14, 1997 から Baikonur Cosmodrome

Loading…

次のパス (今後24時間)

TLE

経年Source: Space-Track

元期: Sep 7, 2026, 04:25 UTC

1 35809U 97051ST  26250.18460408  .00006036  00000-0  77767-3 0  9995
2 35809  86.3261 212.4915 0014245  42.2278 318.0038 14.80845514907748

AllMySatでIRIDIUM 33 DEBをリアルタイム追跡

Download on the App Store